Time,TemperatureF,DewpointF,PressureIn,WindDirection,WindDirectionDegrees,WindSpeedMPH,WindSpeedGustMPH,Humidity,HourlyPrecipIn,Conditions,Clouds,dailyrainin,SoftwareType,DateUTC
2013-02-06 05:32:00,15.0,8.0,30.03,North,0,0.0,0.0,73,0.00,,,0.00,,2013-02-06 10:32:00,
2013-02-06 05:42:00,15.0,8.0,30.03,North,0,0.0,0.0,73,0.00,,,0.00,,2013-02-06 10:42:00,
2013-02-06 05:52:00,15.0,8.0,30.03,North,0,0.0,0.0,73,0.00,,,0.00,,2013-02-06 10:52:00,
2013-02-06 06:01:00,15.0,8.0,30.04,North,0,0.0,0.0,72,0.00,,,0.00,,2013-02-06 11:01:00,
2013-02-06 06:11:00,15.0,8.0,30.04,North,0,0.0,0.0,72,0.00,,,0.00,,2013-02-06 11:11:00,
2013-02-06 06:22:00,15.0,9.0,30.04,North,0,0.0,0.0,76,0.00,,,0.00,,2013-02-06 11:22:00,
2013-02-06 06:32:00,14.0,8.0,30.05,North,0,0.0,0.0,77,0.00,,,0.00,,2013-02-06 11:32:00,
2013-02-06 06:42:00,14.0,8.0,30.05,North,0,0.0,0.0,77,0.00,,,0.00,,2013-02-06 11:42:00,
2013-02-06 06:53:00,14.0,8.0,30.06,North,0,0.0,0.0,78,0.00,,,0.00,,2013-02-06 11:53:00,
2013-02-06 07:02:00,14.0,9.0,30.06,North,0,0.0,0.0,79,0.00,,,0.00,,2013-02-06 12:02:00,
2013-02-06 07:12:00,14.0,9.0,30.06,North,0,0.0,0.0,79,0.00,,,0.00,,2013-02-06 12:12:00,
2013-02-06 07:22:00,14.0,9.0,30.07,North,0,0.0,0.0,80,0.00,,,0.00,,2013-02-06 12:22:00,
2013-02-06 07:32:00,14.0,9.0,30.07,SW,221,0.0,0.0,81,0.00,,,0.00,,2013-02-06 12:32:00,
2013-02-06 07:42:00,14.0,9.0,30.07,SW,221,0.0,0.0,81,0.00,,,0.00,,2013-02-06 12:42:00,
2013-02-06 07:52:00,14.0,10.0,30.08,SW,221,0.0,0.0,82,0.00,,,0.00,,2013-02-06 12:52:00,
2013-02-06 08:01:00,14.0,9.0,30.09,SW,221,0.0,0.0,80,0.00,,,0.00,,2013-02-06 13:01:00,
2013-02-06 08:12:00,14.0,9.0,30.09,SW,221,0.0,0.0,80,0.00,,,0.00,,2013-02-06 13:12:00,
2013-02-06 08:22:00,13.0,9.0,30.10,SW,221,0.0,0.0,82,0.00,,,0.00,,2013-02-06 13:22:00,
2013-02-06 08:32:00,14.0,10.0,30.11,SSW,209,0.0,0.0,84,0.00,,,0.00,,2013-02-06 13:32:00,
2013-02-06 08:42:00,14.0,10.0,30.11,SSW,209,0.0,0.0,84,0.00,,,0.00,,2013-02-06 13:42:00,
2013-02-06 08:52:00,14.0,10.0,30.11,SSW,207,0.0,0.0,85,0.00,,,0.00,,2013-02-06 13:52:00,
2013-02-06 09:02:00,15.0,11.0,30.11,South,186,0.0,0.0,85,0.00,,,0.00,,2013-02-06 14:02:00,
2013-02-06 09:11:00,15.0,11.0,30.11,South,186,0.0,0.0,85,0.00,,,0.00,,2013-02-06 14:11:00,
2013-02-06 09:22:00,16.0,12.0,30.11,SSW,206,0.0,0.0,85,0.00,,,0.00,,2013-02-06 14:22:00,
2013-02-06 09:32:00,16.0,12.0,30.11,South,190,0.0,0.0,83,0.00,,,0.00,,2013-02-06 14:32:00,
2013-02-06 09:42:00,16.0,12.0,30.11,South,190,0.0,0.0,83,0.00,,,0.00,,2013-02-06 14:42:00,
2013-02-06 09:52:00,17.0,12.0,30.11,SSE,163,0.0,0.0,82,0.00,,,0.00,,2013-02-06 14:52:00,
2013-02-06 10:02:00,18.0,13.0,30.11,SSW,212,0.0,0.0,80,0.00,,,0.00,,2013-02-06 15:02:00,
2013-02-06 10:11:00,18.0,13.0,30.12,SSW,200,0.0,0.0,80,0.00,,,0.00,,2013-02-06 15:11:00,
2013-02-06 10:21:00,18.0,13.0,30.12,SSW,200,0.0,0.0,80,0.00,,,0.00,,2013-02-06 15:21:00,
2013-02-06 10:32:00,18.0,12.0,30.12,South,186,0.0,0.0,78,0.00,,,0.00,,2013-02-06 15:32:00,
2013-02-06 10:42:00,18.0,12.0,30.12,South,186,0.0,0.0,78,0.00,,,0.00,,2013-02-06 15:42:00,
2013-02-06 10:52:00,19.0,13.0,30.12,South,175,0.0,0.0,76,0.00,,,0.00,,2013-02-06 15:52:00,
2013-02-06 11:01:00,20.0,13.0,30.12,SSW,199,0.0,0.0,75,0.00,,,0.00,,2013-02-06 16:01:00,
2013-02-06 11:11:00,20.0,13.0,30.12,SSW,199,0.0,0.0,75,0.00,,,0.00,,2013-02-06 16:11:00,
2013-02-06 11:21:00,20.0,13.0,30.13,SSW,199,0.0,0.0,74,0.00,,,0.00,,2013-02-06 16:21:00,
2013-02-06 11:32:00,21.0,13.0,30.14,SSW,192,0.0,0.0,72,0.00,,,0.00,,2013-02-06 16:32:00,
2013-02-06 11:42:00,21.0,13.0,30.14,SSW,192,0.0,0.0,72,0.00,,,0.00,,2013-02-06 16:42:00,
2013-02-06 11:52:00,23.0,15.0,30.15,SSW,193,0.0,0.0,70,0.00,,,0.00,,2013-02-06 16:52:00,
2013-02-06 12:02:00,24.0,14.0,30.15,SW,222,0.0,0.0,66,0.00,,,0.00,,2013-02-06 17:02:00,
2013-02-06 12:11:00,24.0,14.0,30.15,SW,222,0.0,0.0,66,0.00,,,0.00,,2013-02-06 17:11:00,
2013-02-06 12:22:00,25.0,15.0,30.15,SSW,195,0.0,0.0,65,0.00,,,0.00,,2013-02-06 17:22:00,
2013-02-06 12:32:00,25.0,15.0,30.15,SW,230,0.0,0.0,64,0.00,,,0.00,,2013-02-06 17:32:00,
2013-02-06 12:42:00,25.0,14.0,30.14,West,269,0.0,0.0,62,0.00,,,0.00,,2013-02-06 17:42:00,
2013-02-06 12:52:00,25.0,14.0,30.14,West,269,0.0,0.0,62,0.00,,,0.00,,2013-02-06 17:52:00,
2013-02-06 13:01:00,25.0,13.0,30.14,WSW,257,0.0,0.0,59,0.00,,,0.00,,2013-02-06 18:01:00,
2013-02-06 13:11:00,27.0,13.0,30.14,West,265,0.0,0.0,54,0.00,,,0.00,,2013-02-06 18:11:00,
2013-02-06 13:23:00,27.0,13.0,30.14,West,265,0.0,0.0,54,0.00,,,0.00,,2013-02-06 18:23:00,
2013-02-06 13:32:00,26.0,13.0,30.14,SW,236,0.0,0.0,57,0.00,,,0.00,,2013-02-06 18:32:00,
2013-02-06 13:42:00,26.0,13.0,30.14,SW,236,0.0,0.0,57,0.00,,,0.00,,2013-02-06 18:42:00,
2013-02-06 13:52:00,27.0,11.0,30.14,WSW,240,0.0,0.0,51,0.00,,,0.00,,2013-02-06 18:52:00,
2013-02-06 14:01:00,27.0,12.0,30.14,WSW,246,0.0,0.0,53,0.00,,,0.00,,2013-02-06 19:01:00,
2013-02-06 14:11:00,27.0,12.0,30.14,WSW,246,0.0,0.0,53,0.00,,,0.00,,2013-02-06 19:11:00,
2013-02-06 14:21:00,28.0,12.0,30.14,West,278,0.0,0.0,51,0.00,,,0.00,,2013-02-06 19:21:00,
2013-02-06 14:32:00,27.0,13.0,30.13,WNW,288,0.0,0.0,56,0.00,,,0.00,,2013-02-06 19:32:00,
2013-02-06 14:42:00,27.0,13.0,30.13,WNW,288,0.0,0.0,56,0.00,,,0.00,,2013-02-06 19:42:00,
2013-02-06 14:52:00,28.0,13.0,30.13,West,260,0.0,0.0,52,0.00,,,0.00,,2013-02-06 19:52:00,
2013-02-06 15:01:00,28.0,13.0,30.12,SW,229,0.0,0.0,52,0.00,,,0.00,,2013-02-06 20:01:00,
2013-02-06 15:11:00,26.0,11.0,30.11,West,260,0.0,0.0,53,0.00,,,0.00,,2013-02-06 20:11:00,
2013-02-06 15:21:00,26.0,11.0,30.11,West,260,0.0,0.0,53,0.00,,,0.00,,2013-02-06 20:21:00,
2013-02-06 15:32:00,27.0,12.0,30.12,WSW,237,0.0,0.0,53,0.00,,,0.00,,2013-02-06 20:32:00,
2013-02-06 15:42:00,27.0,12.0,30.12,WSW,237,0.0,0.0,53,0.00,,,0.00,,2013-02-06 20:42:00,
2013-02-06 15:52:00,27.0,13.0,30.12,SW,226,0.0,0.0,54,0.00,,,0.00,,2013-02-06 20:52:00,
2013-02-06 16:02:00,27.0,14.0,30.13,SW,234,0.0,0.0,57,0.00,,,0.00,,2013-02-06 21:02:00,
2013-02-06 16:11:00,27.0,14.0,30.13,SW,234,0.0,0.0,57,0.00,,,0.00,,2013-02-06 21:11:00,
2013-02-06 16:21:00,26.0,13.0,30.14,West,261,0.0,0.0,58,0.00,,,0.00,,2013-02-06 21:21:00,
2013-02-06 16:32:00,26.0,13.0,30.15,WSW,239,0.0,0.0,58,0.00,,,0.00,,2013-02-06 21:32:00,
2013-02-06 16:42:00,26.0,13.0,30.15,WSW,239,0.0,0.0,58,0.00,,,0.00,,2013-02-06 21:42:00,
2013-02-06 16:52:00,26.0,13.0,30.14,West,274,0.0,0.0,58,0.00,,,0.00,,2013-02-06 21:52:00,
2013-02-06 17:01:00,26.0,14.0,30.14,West,265,0.0,0.0,60,0.00,,,0.00,,2013-02-06 22:01:00,
2013-02-06 17:11:00,26.0,14.0,30.14,West,265,0.0,0.0,60,0.00,,,0.00,,2013-02-06 22:11:00,
2013-02-06 17:21:00,26.0,14.0,30.14,WSW,245,0.0,0.0,60,0.00,,,0.00,,2013-02-06 22:21:00,
2013-02-06 17:32:00,26.0,14.0,30.13,SSW,208,0.0,0.0,59,0.00,,,0.00,,2013-02-06 22:32:00,
2013-02-06 17:42:00,26.0,14.0,30.13,SSW,208,0.0,0.0,59,0.00,,,0.00,,2013-02-06 22:42:00,
2013-02-06 17:52:00,26.0,14.0,30.13,SSW,208,0.0,0.0,60,0.00,,,0.00,,2013-02-06 22:52:00,
2013-02-06 18:01:00,25.0,14.0,30.13,SSW,208,0.0,0.0,63,0.00,,,0.00,,2013-02-06 23:01:00,
2013-02-06 18:11:00,25.0,14.0,30.13,SSW,208,0.0,0.0,63,0.00,,,0.00,,2013-02-06 23:11:00,
2013-02-06 18:21:00,25.0,15.0,30.13,SSW,208,0.0,0.0,64,0.00,,,0.00,,2013-02-06 23:21:00,
2013-02-06 18:32:00,24.0,15.0,30.13,SSW,208,0.0,0.0,67,0.00,,,0.00,,2013-02-06 23:32:00,
2013-02-06 18:42:00,24.0,15.0,30.13,SSW,208,0.0,0.0,67,0.00,,,0.00,,2013-02-06 23:42:00,
2013-02-06 18:52:00,23.0,14.0,30.13,SSW,208,0.0,0.0,68,0.00,,,0.00,,2013-02-06 23:52:00,
2013-02-06 19:01:00,23.0,15.0,30.14,SSW,208,0.0,0.0,71,0.00,,,0.00,,2013-02-07 00:01:00,
2013-02-06 19:11:00,23.0,15.0,30.14,SSW,208,0.0,0.0,71,0.00,,,0.00,,2013-02-07 00:11:00,
2013-02-06 19:21:00,22.0,15.0,30.13,SSW,208,0.0,0.0,73,0.00,,,0.00,,2013-02-07 00:21:00,
2013-02-06 19:32:00,22.0,15.0,30.13,SSW,208,0.0,0.0,74,0.00,,,0.00,,2013-02-07 00:32:00,
2013-02-06 19:42:00,22.0,15.0,30.13,SSW,208,0.0,0.0,74,0.00,,,0.00,,2013-02-07 00:42:00,
2013-02-06 19:52:00,22.0,15.0,30.12,SSW,196,0.0,0.0,74,0.00,,,0.00,,2013-02-07 00:52:00,
2013-02-06 20:01:00,22.0,15.0,30.13,SSW,196,0.0,0.0,75,0.00,,,0.00,,2013-02-07 01:01:00,
2013-02-06 20:11:00,22.0,15.0,30.13,SSW,196,0.0,0.0,75,0.00,,,0.00,,2013-02-07 01:11:00,
2013-02-06 20:21:00,22.0,15.0,30.12,SSW,196,0.0,0.0,75,0.00,,,0.00,,2013-02-07 01:21:00,
2013-02-06 20:32:00,23.0,17.0,30.14,SSW,196,0.0,0.0,76,0.00,,,0.00,,2013-02-07 01:32:00,
2013-02-06 20:42:00,23.0,17.0,30.14,SSW,196,0.0,0.0,76,0.00,,,0.00,,2013-02-07 01:42:00,
2013-02-06 20:52:00,23.0,16.0,30.15,SSW,196,0.0,0.0,75,0.00,,,0.00,,2013-02-07 01:52:00,
2013-02-06 21:01:00,23.0,17.0,30.15,SSW,196,0.0,0.0,77,0.00,,,0.00,,2013-02-07 02:01:00,
2013-02-06 21:11:00,23.0,17.0,30.15,SSW,196,0.0,0.0,77,0.00,,,0.00,,2013-02-07 02:11:00,
2013-02-06 21:21:00,23.0,18.0,30.15,SSW,196,0.0,0.0,80,0.00,,,0.00,,2013-02-07 02:21:00,
2013-02-06 21:32:00,23.0,18.0,30.15,SSW,196,0.0,0.0,82,0.00,,,0.00,,2013-02-07 02:32:00,
2013-02-06 21:42:00,23.0,18.0,30.15,SSW,196,0.0,0.0,82,0.00,,,0.00,,2013-02-07 02:42:00,
2013-02-06 21:52:00,23.0,18.0,30.15,SSW,196,0.0,0.0,82,0.00,,,0.00,,2013-02-07 02:52:00,
2013-02-06 22:02:00,23.0,20.0,30.15,South,185,0.0,0.0,87,0.00,,,0.00,,2013-02-07 03:02:00,
2013-02-06 22:11:00,23.0,20.0,30.14,South,184,0.0,0.0,88,0.00,,,0.00,,2013-02-07 03:11:00,
2013-02-06 22:21:00,23.0,20.0,30.14,South,184,0.0,0.0,88,0.00,,,0.00,,2013-02-07 03:21:00,
2013-02-06 22:31:00,23.0,20.0,30.14,SSE,163,0.0,0.0,89,0.00,,,0.00,,2013-02-07 03:31:00,
2013-02-06 22:42:00,23.0,20.0,30.14,SSE,163,0.0,0.0,89,0.00,,,0.00,,2013-02-07 03:42:00,
2013-02-06 22:52:00,23.0,20.0,30.14,SSE,163,0.0,0.0,89,0.00,,,0.00,,2013-02-07 03:52:00,
2013-02-06 23:01:00,23.0,20.0,30.14,SSE,163,0.0,0.0,89,0.00,,,0.00,,2013-02-07 04:01:00,
2013-02-06 23:11:00,23.0,20.0,30.14,SSE,163,0.0,0.0,89,0.00,,,0.00,,2013-02-07 04:11:00,
2013-02-06 23:22:00,23.0,20.0,30.14,SSE,163,0.0,0.0,89,0.00,,,0.00,,2013-02-07 04:22:00,
2013-02-06 23:32:00,23.0,21.0,30.14,SSE,163,0.0,0.0,90,0.00,,,0.00,,2013-02-07 04:32:00,
2013-02-06 23:42:00,23.0,21.0,30.14,SSE,163,0.0,0.0,90,0.00,,,0.00,,2013-02-07 04:42:00,
2013-02-06 23:53:00,23.0,21.0,30.14,SSE,163,0.0,0.0,90,0.00,,,0.00,,2013-02-07 04:53:00,